Location: Driftpile
(55.3500°N, 115.7667°W)
Time: 01:12:07
(UTC+00:00)

ISS - Pass Details

Date: 01 December 2021
Orbit: 413 x 422 km, 51.6° (Epoch: 24 January)

Event Time Altitude Azimuth Distance (km) Brightness Sun altitude
Rises 02:05:59 0° 271° (W) 2,385 1.5 -22.6°
Reaches altitude 10° 02:08:13 10° 262° (W) 1,516 0.2 -22.9°
Enters shadow 02:10:59 33° 210° (SSW) 737 -2.3 -23.3°
